Notices

What's New in latest Release from April 7th, 2021:

- Updated Glossary, including Speed of Maximum Gust, and Total Hourly Precipitation

- Updated national and regional climate services offices contacts and prices information

- Addition of station inventory lists for 1981-2010, 1971-2000, and 1961-1990 Normals.

If you haven't already, please take our survey and provide feedback about our website: https://eccc.sondage-survey.ca/f/LanguageSelection.aspx?s=442ca660-fcf1-47c0-95a9-59707d6fd709

Hourly Data Report for June 11, 2004

SHERBROOKE A
QUEBEC

45°26'00.000" N
71°41'00.000" W
241.40 m
7028124
71610
YSC

Download Data

Hourly Data (June 2004)
Hourly Data Report for June 11, 2004
TIME
LST
Temp Definition
°C
Dew Point Definition
°C
Rel Hum Definition
%
Precip. Amount Definition
mm

Wind Dir Definition
10's deg

Wind Spd Definition
km/h
Visibility Definition
km
Stn Press Definition
kPa
Hmdx Definition


Wind Chill Definition


Weather Definition


00:00 4.5 -0.4 70   29 7 15.0 98.60      
01:00 3.1 -0.9 75   28 9 15.0 98.58      
02:00 3.5 -1.0 72   30 11 15.0 98.58      
03:00 2.6 -1.0 77   28 6 15.0 98.62      
04:00 1.6 -1.3 81   30 9 15.0 98.65      
05:00 3.5 0.0 78   29 7 15.0 98.70      
06:00 7.1 2.3 71   28 9 15.0 98.71      
07:00 9.1 1.2 58   31 11 24.1 98.74     Clear
08:00 10.7 0.7 50   32 22 24.1 98.69     Clear
09:00 11.5 1.7 51   29 15 24.1 98.66     Clear
10:00 12.8 1.5 46   31 19 24.1 98.64     Clear
11:00 13.8 1.3 43   29 13 24.1 98.61     Clear
12:00 15.1 3.2 45   30 26 24.1 98.53     Clear
13:00 15.6 2.4 41   29 33 24.1 98.48     Mainly Clear
14:00 16.1 1.6 37   33 20 24.1 98.49     Mainly Clear
15:00 16.8 2.2 37   33 13 24.1 98.46     Mainly Clear
16:00 16.8 1.5 36   30 22 24.1 98.44     Mainly Clear
17:00 16.8 1.2 35   31 17 15.0 98.46      
18:00 16.0 -0.3 33   34 17 15.0 98.51      
19:00 14.3 -0.7 36   32 9 15.0 98.55      
20:00 10.5 -0.5 46   32 6 15.0 98.59      
21:00 4.8 1.7 80   30 4 15.0 98.63      
22:00 9.3 -0.3 51   5 7 15.0 98.72      
23:00 4.6 0.6 75     0 15.0 98.79      

Notes on Data Quality.

Legend

  • E = Estimated
  • M = Missing
  • NA = Not Available*
  • [empty] = Indicates an unobserved value
Date modified: